GFSFLT2_prec_precacc_210.txt.gz
Total_Precipitation_Accumulation
10.57 7.26 6.41 5.66 6.33 4.11 1.78 1.64 1.82 2.19 2.31 2.33 2.63 2.99 2.05 1.53 0.97 0.74 0.73 0.72 0.38 0.34 0.29 0.40 0.57 0.53 0.23 0.26 0.29 0.32 0.39 1.05
6.96 5.70 4.95 4.65 4.82 5.35 3.72 2.50 2.16 1.89 1.86 1.82 1.74 2.23 2.13 1.50 1.02 0.76 0.83 0.72 0.50 0.40 0.50 0.63 0.58 0.54 0.55 0.47 0.36 0.28 0.15 0.28
3.69 2.64 1.87 2.18 2.32 2.72 3.34 3.29 2.69 2.72 2.92 2.12 1.67 1.56 2.07 1.72 1.22 0.93 0.98 0.86 0.69 0.56 0.65 0.66 0.53 0.45 0.32 0.29 0.24 0.24 0.17 0.24
1.37 0.91 0.54 0.57 0.72 0.84 1.40 2.15 2.53 2.24 3.57 2.48 2.13 1.24 1.35 1.24 1.42 1.16 1.01 1.12 0.76 0.81 0.65 0.49 0.37 0.25 0.17 0.13 0.10 0.22 0.21 0.28
0.79 0.59 0.40 0.47 0.33 0.39 0.58 1.20 2.01 2.27 2.49 2.34 2.35 1.39 1.52 1.25 1.45 1.18 1.04 1.50 0.97 0.93 0.68 0.47 0.31 0.30 0.29 0.16 0.22 0.20 0.22 0.19
0.35 0.41 0.50 0.85 0.66 0.40 0.43 0.86 1.64 1.80 1.45 1.33 1.72 1.22 1.31 1.31 1.04 0.99 0.81 1.32 1.01 0.84 0.62 0.52 0.53 0.52 0.41 0.29 0.31 0.24 0.24 0.22
0.40 0.21 0.33 0.41 0.50 0.64 0.60 0.72 1.02 1.30 1.14 0.53 1.16 1.00 0.87 1.29 1.02 0.95 0.69 1.25 0.80 0.54 0.57 0.53 0.61 0.68 0.60 0.51 0.28 0.37 0.22 0.27
0.48 0.44 0.39 0.39 0.45 0.43 0.59 0.81 1.12 1.05 1.14 0.53 0.46 0.72 0.86 1.30 1.17 1.00 0.70 0.92 0.81 0.68 0.45 0.52 0.50 0.70 0.56 0.49 0.36 0.37 0.18 0.18
0.62 1.03 0.52 0.38 0.40 0.51 0.51 0.62 0.95 1.06 1.12 0.89 0.50 0.41 0.55 0.78 0.98 0.81 0.70 0.77 0.71 0.85 0.78 0.61 0.59 0.86 0.60 0.52 0.42 0.45 0.25 0.12
0.67 1.29 0.95 0.59 0.48 0.71 0.66 0.84 0.99 1.08 1.18 1.00 0.67 0.54 0.55 0.54 0.77 0.98 0.86 0.85 0.60 0.56 0.78 0.62 0.57 0.78 0.79 0.56 0.53 0.45 0.42 0.13
0.50 0.84 1.09 1.04 1.00 1.01 0.83 0.87 1.06 1.07 1.00 1.17 0.97 0.84 0.81 0.66 0.62 0.75 1.11 0.79 0.60 0.64 0.66 0.68 0.49 0.61 0.80 0.69 0.60 0.47 0.54 0.46
0.59 0.75 1.23 1.69 1.11 0.69 0.80 1.14 1.03 1.05 1.02 1.15 1.23 1.05 1.25 1.05 0.90 0.68 0.76 0.85 0.70 0.83 0.89 0.82 0.67 0.53 0.69 0.79 0.57 0.66 0.59 0.63
0.65 1.02 1.01 0.66 0.48 0.46 0.58 0.75 0.89 0.97 0.86 0.98 1.34 1.33 1.34 1.62 1.53 1.40 0.89 0.55 0.66 0.76 1.14 1.16 1.08 0.93 1.25 1.23 0.90 0.62 0.66 0.60
0.34 0.21 0.29 0.29 0.28 0.37 0.48 0.59 0.83 0.94 1.01 0.93 1.16 1.27 1.50 1.47 1.50 1.75 1.92 1.27 0.78 0.74 1.08 1.52 1.63 1.55 1.64 1.42 1.09 0.86 0.61 0.66
0.13 0.21 0.36 0.27 0.24 0.33 0.53 0.85 1.14 1.04 1.01 0.75 0.74 0.94 1.24 1.51 1.58 1.45 1.41 1.31 1.18 1.13 1.33 1.77 1.66 1.61 1.42 1.73 1.47 1.10 0.81 0.67
0.22 0.26 0.29 0.22 0.32 0.47 0.46 0.49 0.62 0.54 0.51 0.57 0.58 0.85 1.20 1.50 1.46 1.23 1.39 1.60 1.11 0.92 0.69 1.10 1.60 1.75 2.01 1.57 0.94 0.81 0.77 0.77
0.15 0.27 0.33 0.26 0.38 0.73 0.81 0.76 0.55 0.50 0.50 0.62 0.71 0.83 1.03 1.21 1.35 1.30 1.21 1.15 1.17 1.02 0.67 0.58 0.87 1.12 1.14 1.33 1.63 1.35 0.99 0.71
0.16 0.18 0.32 0.34 0.35 0.60 1.03 1.43 1.67 1.74 1.42 0.99 0.77 0.94 1.14 1.36 1.41 1.42 1.93 1.85 1.58 1.36 1.56 1.34 1.02 1.07 1.28 1.27 0.98 0.91 0.99 1.10
0.27 0.19 0.20 0.24 0.28 0.29 0.44 0.75 1.10 1.57 2.14 2.86 2.75 2.27 2.02 2.21 2.34 2.06 1.99 2.16 2.62 2.07 1.99 1.99 2.05 1.67 1.51 1.31 1.27 1.03 0.86 0.89
0.39 0.37 0.36 0.23 0.24 0.34 0.48 0.58 0.74 1.08 1.22 1.54 2.31 3.04 2.73 3.09 3.56 3.80 3.16 2.72 2.94 2.88 2.34 2.27 2.73 2.73 2.28 1.86 1.49 1.51 1.55 1.45

GFSFLT2_prec_precacc_213.txt.gz
Total_Precipitation_Accumulation
10.57 7.26 6.41 5.66 6.33 4.11 1.78 1.64 1.82 2.19 2.31 2.33 2.63 2.99 2.05 1.53 0.97 0.74 0.73 0.72 0.38 0.34 0.29 0.40 0.57 0.53 0.23 0.26 0.29 0.32 0.39 1.05
6.96 5.70 4.95 4.65 4.82 5.35 3.72 2.50 2.16 1.89 1.86 1.82 1.74 2.23 2.13 1.50 1.02 0.76 0.83 0.72 0.50 0.40 0.50 0.63 0.58 0.54 0.55 0.47 0.36 0.28 0.15 0.28
3.69 2.64 1.87 2.18 2.32 2.72 3.34 3.29 2.69 2.72 2.92 2.12 1.68 1.56 2.08 1.72 1.22 0.93 0.98 0.86 0.69 0.56 0.65 0.66 0.53 0.45 0.32 0.29 0.24 0.24 0.17 0.24
1.37 0.91 0.54 0.57 0.72 0.84 1.40 2.16 2.53 2.24 3.57 2.48 2.13 1.25 1.37 1.27 1.43 1.16 1.01 1.12 0.76 0.81 0.65 0.49 0.37 0.25 0.17 0.13 0.10 0.22 0.21 0.28
0.79 0.59 0.40 0.47 0.33 0.40 0.58 1.20 2.02 2.28 2.49 2.34 2.36 1.41 1.53 1.27 1.48 1.19 1.04 1.50 0.97 0.93 0.68 0.47 0.31 0.30 0.29 0.16 0.22 0.20 0.22 0.19
0.35 0.41 0.50 0.85 0.66 0.40 0.43 0.87 1.66 1.82 1.46 1.33 1.72 1.25 1.35 1.37 1.13 1.05 0.81 1.32 1.01 0.84 0.62 0.52 0.53 0.52 0.41 0.29 0.31 0.24 0.24 0.22
0.40 0.21 0.33 0.41 0.50 0.64 0.60 0.73 1.03 1.32 1.16 0.54 1.17 1.06 0.94 1.38 1.17 1.09 0.72 1.25 0.80 0.54 0.57 0.53 0.61 0.68 0.60 0.51 0.28 0.37 0.22 0.27
0.48 0.44 0.39 0.39 0.45 0.43 0.59 0.81 1.12 1.06 1.15 0.56 0.48 0.76 0.99 1.42 1.32 1.15 0.77 0.93 0.81 0.68 0.45 0.52 0.50 0.70 0.56 0.49 0.36 0.37 0.18 0.18
0.62 1.03 0.52 0.38 0.40 0.51 0.51 0.62 0.96 1.07 1.14 0.94 0.57 0.44 0.64 0.94 1.13 0.96 0.79 0.80 0.72 0.85 0.78 0.61 0.59 0.86 0.60 0.52 0.42 0.45 0.25 0.12
0.67 1.29 0.95 0.59 0.48 0.71 0.69 0.88 1.07 1.23 1.45 1.29 0.84 0.66 0.63 0.71 0.90 1.11 1.00 0.97 0.62 0.56 0.78 0.62 0.57 0.78 0.79 0.56 0.53 0.45 0.42 0.13
0.50 0.84 1.09 1.04 1.00 1.08 0.99 1.00 1.19 1.31 1.39 1.59 1.43 1.28 1.16 1.00 0.91 0.97 1.27 0.95 0.69 0.68 0.66 0.68 0.49 0.61 0.80 0.69 0.60 0.47 0.54 0.46
0.59 0.75 1.23 1.69 1.13 0.75 0.95 1.23 1.10 1.09 1.07 1.25 1.35 1.21 1.58 1.69 1.59 1.08 1.03 1.00 0.85 0.92 0.92 0.83 0.68 0.53 0.69 0.79 0.57 0.66 0.59 0.63
0.65 1.02 1.01 0.69 0.57 0.56 0.74 0.87 0.97 1.01 0.88 1.03 1.45 1.49 1.52 2.02 2.27 2.37 1.55 0.75 0.73 0.82 1.16 1.18 1.09 0.93 1.26 1.23 0.90 0.62 0.66 0.60
0.34 0.22 0.30 0.36 0.39 0.46 0.55 0.66 0.87 0.95 1.03 0.96 1.27 1.43 1.67 1.68 1.88 2.19 2.19 1.46 0.91 0.77 1.09 1.53 1.64 1.56 1.65 1.42 1.09 0.86 0.61 0.66
0.14 0.25 0.43 0.38 0.34 0.44 0.61 0.89 1.16 1.07 1.04 0.78 0.81 1.11 1.43 1.70 1.89 1.88 1.69 1.48 1.30 1.19 1.36 1.77 1.66 1.62 1.43 1.73 1.47 1.10 0.81 0.67
0.22 0.27 0.32 0.27 0.38 0.56 0.55 0.56 0.67 0.56 0.51 0.58 0.60 0.94 1.45 1.99 2.22 2.01 2.26 2.36 1.47 0.98 0.73 1.11 1.61 1.75 2.01 1.57 0.94 0.81 0.77 0.77
0.15 0.27 0.33 0.26 0.39 0.75 0.85 0.82 0.61 0.52 0.51 0.63 0.74 0.93 1.28 1.61 1.97 2.02 1.98 1.84 1.61 1.17 0.72 0.59 0.88 1.13 1.14 1.33 1.63 1.35 0.99 0.71
0.16 0.18 0.32 0.34 0.35 0.60 1.04 1.45 1.71 1.78 1.44 1.02 0.80 0.97 1.24 1.52 1.65 1.83 2.34 2.44 2.25 1.87 1.72 1.37 1.03 1.08 1.29 1.27 0.98 0.91 0.99 1.10
0.27 0.19 0.20 0.24 0.28 0.29 0.45 0.75 1.11 1.60 2.25 3.02 2.89 2.32 2.04 2.23 2.38 2.20 2.30 2.58 3.15 2.65 2.56 2.30 2.12 1.69 1.53 1.32 1.27 1.03 0.86 0.89
0.39 0.37 0.36 0.23 0.24 0.34 0.48 0.58 0.74 1.08 1.22 1.57 2.40 3.17 2.83 3.13 3.56 3.80 3.22 2.88 3.29 3.49 2.98 2.79 3.03 2.84 2.34 1.87 1.50 1.51 1.55 1.45

GFSFLT2_prec_precacc_216.txt.gz
Total_Precipitation_Accumulation
10.57 7.26 6.41 5.66 6.33 4.11 1.79 1.64 1.82 2.19 2.31 2.33 2.63 2.99 2.05 1.53 0.97 0.74 0.73 0.72 0.38 0.34 0.29 0.40 0.57 0.53 0.23 0.26 0.29 0.32 0.39 1.05
6.96 5.70 4.95 4.65 4.82 5.35 3.72 2.50 2.16 1.89 1.86 1.82 1.74 2.23 2.13 1.50 1.02 0.76 0.83 0.72 0.50 0.40 0.50 0.63 0.58 0.54 0.55 0.47 0.36 0.28 0.15 0.28
3.69 2.64 1.87 2.18 2.32 2.72 3.35 3.29 2.69 2.72 2.92 2.12 1.68 1.56 2.09 1.75 1.27 0.93 0.98 0.86 0.69 0.56 0.65 0.66 0.53 0.45 0.32 0.29 0.24 0.24 0.17 0.24
1.37 0.91 0.54 0.58 0.72 0.85 1.40 2.16 2.53 2.24 3.57 2.48 2.13 1.26 1.41 1.33 1.49 1.17 1.01 1.12 0.76 0.81 0.65 0.49 0.37 0.25 0.17 0.13 0.10 0.22 0.21 0.28
0.79 0.59 0.40 0.47 0.34 0.41 0.60 1.21 2.02 2.29 2.49 2.34 2.36 1.44 1.57 1.33 1.54 1.21 1.04 1.50 0.97 0.93 0.68 0.47 0.31 0.30 0.29 0.16 0.22 0.20 0.22 0.19
0.35 0.41 0.50 0.85 0.66 0.41 0.45 0.88 1.67 1.82 1.47 1.33 1.75 1.31 1.40 1.44 1.21 1.15 0.85 1.33 1.01 0.84 0.62 0.52 0.53 0.52 0.41 0.29 0.31 0.24 0.24 0.22
0.40 0.21 0.33 0.41 0.50 0.64 0.61 0.74 1.04 1.32 1.16 0.54 1.18 1.12 1.06 1.46 1.28 1.31 0.91 1.32 0.82 0.54 0.57 0.53 0.61 0.68 0.60 0.51 0.28 0.37 0.22 0.27
0.48 0.44 0.39 0.39 0.45 0.43 0.59 0.81 1.13 1.06 1.16 0.57 0.49 0.79 1.07 1.55 1.45 1.38 0.99 1.02 0.85 0.69 0.45 0.52 0.50 0.70 0.56 0.49 0.36 0.37 0.18 0.18
0.62 1.03 0.52 0.38 0.40 0.51 0.51 0.62 0.97 1.09 1.17 0.95 0.59 0.53 0.75 1.13 1.37 1.20 1.03 0.92 0.77 0.86 0.78 0.61 0.59 0.86 0.60 0.52 0.42 0.45 0.25 0.12
0.67 1.29 0.95 0.59 0.48 0.71 0.69 0.89 1.09 1.28 1.52 1.36 0.94 0.90 1.03 1.13 1.19 1.38 1.28 1.17 0.68 0.58 0.78 0.62 0.57 0.78 0.79 0.56 0.53 0.45 0.42 0.13
0.50 0.84 1.09 1.04 1.01 1.09 1.00 1.03 1.25 1.36 1.44 1.67 1.63 1.84 2.04 1.76 1.63 1.73 1.89 1.29 0.87 0.75 0.68 0.68 0.49 0.61 0.80 0.69 0.60 0.47 0.54 0.46
0.59 0.75 1.24 1.72 1.14 0.77 0.98 1.30 1.19 1.16 1.11 1.33 1.51 1.42 1.71 1.90 2.02 1.65 1.86 1.96 1.56 1.41 1.13 0.88 0.68 0.53 0.69 0.79 0.57 0.66 0.59 0.63
0.65 1.02 1.02 0.72 0.60 0.61 0.80 0.97 1.12 1.17 0.98 1.13 1.56 1.60 1.63 2.10 2.33 2.57 2.30 1.79 1.95 1.96 1.90 1.56 1.22 0.95 1.27 1.23 0.91 0.63 0.66 0.60
0.34 0.23 0.32 0.39 0.46 0.55 0.70 0.81 1.01 1.07 1.15 1.04 1.33 1.49 1.79 1.78 1.96 2.28 2.43 1.96 1.41 1.24 1.60 2.09 2.08 1.75 1.68 1.44 1.12 0.89 0.63 0.67
0.14 0.25 0.45 0.42 0.43 0.56 0.73 1.06 1.29 1.18 1.15 0.86 0.85 1.15 1.51 1.77 1.96 1.99 1.96 1.76 1.53 1.51 1.74 2.16 1.99 1.87 1.56 1.78 1.48 1.11 0.82 0.68
0.22 0.27 0.32 0.27 0.40 0.62 0.64 0.67 0.74 0.59 0.54 0.60 0.61 0.97 1.48 2.03 2.34 2.18 2.43 2.72 2.04 1.58 1.19 1.56 2.05 2.15 2.19 1.62 0.96 0.82 0.77 0.78
0.15 0.27 0.33 0.26 0.39 0.75 0.85 0.83 0.62 0.53 0.53 0.65 0.74 0.94 1.30 1.70 2.09 2.19 2.28 2.30 2.17 1.99 1.44 1.25 1.44 1.54 1.46 1.46 1.66 1.37 1.00 0.72
0.16 0.18 0.32 0.34 0.35 0.60 1.04 1.46 1.71 1.78 1.45 1.03 0.82 0.99 1.24 1.60 1.84 2.03 2.54 2.68 2.51 2.15 2.07 1.77 1.49 1.57 1.65 1.52 1.09 0.95 1.00 1.10
0.27 0.19 0.20 0.24 0.28 0.29 0.45 0.76 1.11 1.60 2.25 3.03 2.90 2.35 2.06 2.23 2.42 2.29 2.42 2.69 3.28 2.76 2.67 2.59 2.53 2.04 1.87 1.62 1.39 1.09 0.90 0.92
0.39 0.37 0.36 0.23 0.24 0.34 0.49 0.59 0.75 1.09 1.23 1.58 2.40 3.17 2.84 3.14 3.58 3.81 3.23 2.94 3.41 3.59 3.03 2.88 3.36 3.23 2.65 2.12 1.73 1.62 1.64 1.49

GFSFLT2_prec_precacc_219.txt.gz
Total_Precipitation_Accumulation
10.57 7.26 6.42 5.67 6.33 4.11 1.79 1.64 1.82 2.19 2.31 2.33 2.63 2.99 2.05 1.53 0.97 0.74 0.73 0.72 0.38 0.34 0.29 0.40 0.58 0.54 0.23 0.26 0.29 0.32 0.39 1.05
6.96 5.70 4.95 4.65 4.82 5.35 3.72 2.50 2.16 1.89 1.86 1.82 1.74 2.23 2.13 1.50 1.02 0.76 0.83 0.72 0.50 0.40 0.50 0.63 0.58 0.54 0.55 0.47 0.36 0.28 0.15 0.28
3.69 2.64 1.87 2.18 2.32 2.73 3.35 3.29 2.69 2.72 2.92 2.12 1.68 1.56 2.09 1.75 1.28 0.98 1.02 0.86 0.69 0.56 0.65 0.66 0.53 0.45 0.32 0.29 0.24 0.24 0.17 0.24
1.37 0.91 0.54 0.58 0.72 0.85 1.40 2.16 2.53 2.24 3.57 2.48 2.13 1.26 1.41 1.36 1.55 1.25 1.09 1.14 0.76 0.81 0.65 0.49 0.37 0.25 0.17 0.13 0.10 0.22 0.21 0.28
0.79 0.59 0.40 0.47 0.34 0.41 0.60 1.22 2.02 2.29 2.49 2.34 2.36 1.45 1.58 1.38 1.60 1.25 1.09 1.53 0.97 0.93 0.68 0.47 0.31 0.30 0.29 0.16 0.22 0.20 0.22 0.19
0.35 0.41 0.50 0.85 0.66 0.41 0.45 0.88 1.67 1.83 1.47 1.33 1.76 1.33 1.41 1.48 1.25 1.19 0.92 1.39 1.03 0.84 0.62 0.52 0.53 0.52 0.41 0.29 0.31 0.24 0.24 0.22
0.40 0.21 0.33 0.41 0.50 0.64 0.61 0.74 1.05 1.33 1.16 0.54 1.19 1.16 1.09 1.49 1.31 1.35 0.97 1.43 0.89 0.57 0.57 0.53 0.61 0.68 0.60 0.51 0.28 0.37 0.22 0.27
0.48 0.44 0.39 0.39 0.45 0.43 0.59 0.81 1.14 1.08 1.17 0.58 0.51 0.83 1.14 1.59 1.52 1.45 1.11 1.20 0.98 0.78 0.49 0.53 0.50 0.70 0.56 0.49 0.36 0.37 0.18 0.18
0.62 1.03 0.52 0.38 0.40 0.51 0.51 0.62 0.97 1.10 1.20 0.98 0.61 0.56 0.80 1.25 1.53 1.34 1.25 1.18 0.95 0.96 0.84 0.62 0.60 0.86 0.60 0.52 0.42 0.45 0.25 0.12
0.67 1.29 0.95 0.59 0.48 0.72 0.70 0.90 1.11 1.31 1.56 1.40 0.95 0.92 1.09 1.33 1.47 1.82 1.94 1.93 1.21 0.86 0.92 0.66 0.59 0.79 0.79 0.56 0.53 0.45 0.42 0.13
0.50 0.84 1.09 1.04 1.01 1.11 1.05 1.05 1.29 1.42 1.50 1.72 1.66 1.86 2.10 1.97 1.94 2.20 2.43 2.04 1.47 1.29 1.12 1.00 0.72 0.81 0.92 0.71 0.60 0.47 0.54 0.46
0.59 0.75 1.24 1.72 1.15 0.80 1.01 1.33 1.25 1.24 1.20 1.46 1.64 1.52 1.82 2.08 2.22 1.78 1.98 2.16 2.07 1.98 1.95 1.79 1.40 1.02 1.10 1.05 0.63 0.66 0.59 0.63
0.65 1.02 1.03 0.76 0.65 0.65 0.87 1.01 1.17 1.27 1.10 1.28 1.68 1.72 1.79 2.27 2.45 2.64 2.36 1.86 2.05 2.08 2.13 2.01 1.89 1.58 1.82 1.80 1.24 0.72 0.67 0.60
0.34 0.23 0.33 0.41 0.51 0.63 0.79 0.89 1.11 1.19 1.29 1.13 1.40 1.55 1.84 1.84 2.02 2.31 2.47 2.00 1.46 1.27 1.65 2.19 2.40 2.24 2.21 2.04 1.68 1.25 0.81 0.71
0.14 0.25 0.45 0.42 0.44 0.61 0.82 1.18 1.42 1.31 1.27 0.99 0.94 1.25 1.61 1.87 2.04 2.05 1.99 1.77 1.55 1.54 1.79 2.21 2.10 2.14 2.07 2.25 2.03 1.54 1.03 0.81
0.22 0.27 0.32 0.27 0.40 0.63 0.65 0.71 0.78 0.64 0.60 0.67 0.68 1.04 1.57 2.11 2.37 2.20 2.45 2.73 2.07 1.65 1.33 1.70 2.18 2.37 2.68 2.17 1.41 1.14 0.99 0.96
0.15 0.27 0.33 0.26 0.39 0.75 0.85 0.84 0.63 0.54 0.54 0.68 0.78 0.98 1.36 1.76 2.13 2.23 2.32 2.35 2.27 2.17 1.75 1.60 1.76 1.90 1.89 1.95 2.09 1.74 1.37 1.00
0.16 0.18 0.32 0.34 0.35 0.60 1.04 1.46 1.72 1.79 1.47 1.06 0.83 1.01 1.26 1.63 1.87 2.05 2.55 2.71 2.56 2.21 2.23 1.95 1.63 1.73 1.87 1.83 1.48 1.32 1.33 1.36
0.27 0.19 0.20 0.24 0.28 0.29 0.45 0.76 1.11 1.60 2.26 3.04 2.91 2.37 2.08 2.24 2.43 2.32 2.45 2.71 3.32 2.86 2.81 2.66 2.56 2.08 1.95 1.79 1.65 1.43 1.15 1.22
0.39 0.37 0.36 0.23 0.24 0.34 0.49 0.59 0.75 1.09 1.24 1.58 2.41 3.18 2.85 3.15 3.59 3.83 3.24 2.95 3.42 3.62 3.14 2.96 3.39 3.24 2.67 2.18 1.85 1.84 1.92 1.78

GFSFLT2_prec_precacc_222.txt.gz
Total_Precipitation_Accumulation
10.57 7.27 6.42 5.67 6.33 4.11 1.79 1.64 1.82 2.19 2.31 2.33 2.63 2.99 2.05 1.53 0.97 0.74 0.73 0.72 0.38 0.34 0.29 0.40 0.58 0.54 0.23 0.26 0.29 0.32 0.39 1.05
6.96 5.70 4.95 4.65 4.82 5.35 3.72 2.50 2.16 1.89 1.86 1.82 1.74 2.23 2.13 1.50 1.02 0.76 0.83 0.72 0.50 0.40 0.50 0.63 0.58 0.55 0.55 0.47 0.36 0.28 0.15 0.28
3.69 2.64 1.87 2.18 2.32 2.73 3.35 3.29 2.69 2.72 2.92 2.12 1.68 1.56 2.09 1.76 1.28 0.98 1.04 0.88 0.70 0.56 0.65 0.66 0.54 0.45 0.32 0.29 0.24 0.24 0.17 0.24
1.37 0.91 0.54 0.58 0.72 0.85 1.41 2.16 2.53 2.24 3.57 2.48 2.13 1.26 1.42 1.36 1.55 1.26 1.11 1.17 0.77 0.81 0.65 0.50 0.37 0.25 0.17 0.13 0.10 0.22 0.21 0.28
0.79 0.59 0.40 0.47 0.34 0.41 0.61 1.22 2.03 2.29 2.50 2.34 2.37 1.46 1.60 1.39 1.61 1.26 1.10 1.55 0.99 0.94 0.68 0.47 0.31 0.31 0.29 0.16 0.22 0.20 0.22 0.19
0.35 0.41 0.50 0.85 0.66 0.41 0.45 0.89 1.68 1.83 1.47 1.34 1.77 1.35 1.43 1.49 1.25 1.20 0.93 1.41 1.05 0.85 0.62 0.52 0.53 0.52 0.41 0.29 0.31 0.24 0.24 0.22
0.40 0.21 0.33 0.41 0.50 0.65 0.61 0.74 1.06 1.33 1.17 0.55 1.21 1.17 1.10 1.50 1.32 1.37 0.98 1.48 0.95 0.60 0.58 0.53 0.61 0.68 0.60 0.51 0.28 0.37 0.22 0.27
0.48 0.44 0.39 0.39 0.45 0.43 0.59 0.81 1.14 1.08 1.17 0.58 0.52 0.86 1.15 1.60 1.54 1.47 1.14 1.23 1.10 0.86 0.53 0.55 0.52 0.71 0.57 0.50 0.37 0.37 0.18 0.18
0.62 1.03 0.52 0.38 0.40 0.51 0.51 0.62 0.97 1.11 1.22 0.99 0.62 0.59 0.86 1.30 1.57 1.43 1.35 1.27 1.09 1.11 0.94 0.69 0.66 0.93 0.65 0.56 0.44 0.45 0.25 0.12
0.67 1.29 0.95 0.60 0.48 0.72 0.70 0.90 1.11 1.33 1.58 1.42 0.99 0.94 1.12 1.36 1.55 1.88 2.03 2.14 1.78 1.73 1.72 1.18 0.78 0.92 0.94 0.68 0.59 0.47 0.43 0.13
0.50 0.84 1.09 1.05 1.02 1.12 1.06 1.06 1.29 1.45 1.59 1.78 1.71 1.89 2.13 1.99 1.98 2.34 2.67 2.47 2.21 1.87 1.48 1.25 0.88 0.98 1.17 0.99 0.84 0.59 0.57 0.47
0.59 0.75 1.25 1.74 1.19 0.84 1.04 1.36 1.27 1.28 1.29 1.60 1.72 1.56 1.86 2.11 2.30 1.92 2.10 2.25 2.17 2.07 1.97 1.82 1.58 1.36 1.48 1.56 1.21 1.04 0.75 0.67
0.65 1.02 1.03 0.77 0.67 0.70 0.93 1.08 1.22 1.33 1.18 1.40 1.83 1.81 1.84 2.31 2.54 2.75 2.42 1.90 2.08 2.11 2.15 2.02 1.91 1.64 1.94 2.02 1.62 1.08 0.90 0.72
0.34 0.23 0.33 0.41 0.51 0.66 0.84 0.96 1.22 1.29 1.40 1.30 1.58 1.65 1.90 1.90 2.09 2.38 2.50 2.02 1.47 1.30 1.66 2.20 2.41 2.27 2.26 2.14 1.90 1.64 1.20 0.96
0.14 0.25 0.45 0.42 0.44 0.61 0.83 1.20 1.47 1.39 1.40 1.17 1.17 1.45 1.74 2.00 2.20 2.13 2.03 1.80 1.57 1.56 1.80 2.21 2.10 2.16 2.08 2.27 2.10 1.67 1.25 1.12
0.22 0.27 0.32 0.27 0.40 0.63 0.65 0.71 0.78 0.66 0.63 0.73 0.77 1.18 1.77 2.31 2.61 2.38 2.55 2.79 2.10 1.68 1.36 1.72 2.21 2.41 2.80 2.31 1.53 1.28 1.17 1.27
0.15 0.27 0.33 0.26 0.39 0.75 0.85 0.84 0.63 0.54 0.55 0.69 0.82 1.03 1.42 1.88 2.39 2.62 2.59 2.58 2.46 2.22 1.78 1.64 1.77 1.92 2.02 2.13 2.25 1.90 1.56 1.19
0.16 0.18 0.32 0.34 0.35 0.60 1.04 1.46 1.72 1.79 1.48 1.07 0.85 1.03 1.31 1.72 2.06 2.39 3.04 3.09 2.91 2.38 2.27 1.98 1.64 1.75 1.91 1.89 1.55 1.43 1.53 1.56
0.27 0.19 0.20 0.24 0.28 0.29 0.45 0.76 1.11 1.60 2.26 3.04 2.92 2.37 2.10 2.30 2.52 2.45 2.67 3.02 3.68 3.16 2.95 2.76 2.58 2.10 1.96 1.79 1.65 1.44 1.21 1.35
0.39 0.37 0.36 0.23 0.24 0.34 0.49 0.59 0.75 1.09 1.24 1.58 2.41 3.18 2.85 3.16 3.62 3.89 3.31 3.05 3.59 3.88 3.42 3.20 3.47 3.26 2.68 2.18 1.85 1.84 1.93 1.85

GFSFLT2_prec_precacc_228.txt.gz
Total_Precipitation_Accumulation
10.57 7.27 6.42 5.67 6.33 4.11 1.79 1.64 1.82 2.19 2.31 2.33 2.63 2.99 2.05 1.53 0.97 0.74 0.73 0.72 0.38 0.34 0.29 0.40 0.58 0.54 0.23 0.26 0.29 0.32 0.39 1.05
6.96 5.70 4.95 4.65 4.82 5.35 3.72 2.50 2.16 1.89 1.86 1.82 1.74 2.23 2.13 1.50 1.02 0.76 0.83 0.72 0.50 0.40 0.50 0.63 0.58 0.55 0.55 0.47 0.36 0.28 0.15 0.29
3.69 2.64 1.87 2.18 2.32 2.73 3.35 3.29 2.69 2.72 2.92 2.12 1.68 1.56 2.09 1.76 1.28 0.98 1.04 0.88 0.70 0.56 0.65 0.66 0.54 0.45 0.32 0.29 0.24 0.24 0.17 0.24
1.37 0.91 0.54 0.58 0.72 0.85 1.41 2.16 2.53 2.24 3.57 2.49 2.13 1.26 1.42 1.36 1.55 1.26 1.11 1.17 0.78 0.81 0.65 0.50 0.37 0.25 0.17 0.13 0.10 0.22 0.21 0.28
0.80 0.59 0.40 0.47 0.34 0.41 0.61 1.22 2.03 2.29 2.50 2.34 2.37 1.46 1.61 1.40 1.62 1.26 1.10 1.55 0.99 0.95 0.68 0.47 0.31 0.31 0.29 0.16 0.22 0.20 0.22 0.19
0.35 0.43 0.51 0.86 0.66 0.41 0.45 0.89 1.68 1.83 1.47 1.34 1.78 1.36 1.44 1.56 1.32 1.22 0.94 1.42 1.07 0.87 0.63 0.52 0.54 0.52 0.41 0.30 0.32 0.24 0.24 0.24
0.40 0.21 0.34 0.42 0.51 0.65 0.62 0.75 1.06 1.33 1.17 0.58 1.23 1.21 1.14 1.63 1.45 1.51 1.05 1.50 0.98 0.63 0.61 0.54 0.62 0.69 0.62 0.53 0.32 0.38 0.22 0.30
0.48 0.44 0.39 0.39 0.46 0.44 0.60 0.85 1.17 1.10 1.18 0.62 0.64 0.97 1.31 1.81 1.72 1.59 1.28 1.30 1.16 0.94 0.58 0.57 0.52 0.72 0.59 0.51 0.39 0.40 0.18 0.25
0.62 1.03 0.52 0.38 0.41 0.52 0.52 0.62 1.02 1.15 1.25 1.01 0.67 0.74 1.08 1.57 1.83 1.60 1.43 1.37 1.20 1.26 1.04 0.72 0.69 0.96 0.68 0.58 0.47 0.50 0.30 0.19
0.67 1.29 0.95 0.60 0.49 0.74 0.73 0.93 1.14 1.37 1.63 1.53 1.06 1.00 1.30 1.65 1.78 2.02 2.20 2.28 1.94 1.87 1.85 1.41 1.16 1.23 1.17 0.82 0.68 0.55 0.50 0.21
0.50 0.84 1.09 1.05 1.03 1.14 1.08 1.10 1.33 1.49 1.66 1.90 1.89 2.10 2.33 2.20 2.14 2.51 2.81 2.66 2.38 2.01 1.64 1.48 1.16 1.23 1.38 1.13 0.93 0.67 0.67 0.55
0.59 0.75 1.25 1.74 1.20 0.85 1.07 1.39 1.30 1.31 1.34 1.66 1.79 1.72 2.13 2.45 2.52 2.15 2.22 2.36 2.33 2.25 2.21 2.08 1.76 1.46 1.55 1.60 1.27 1.16 0.95 0.89
0.65 1.02 1.03 0.77 0.67 0.70 0.93 1.09 1.25 1.37 1.22 1.43 1.88 1.91 2.04 2.62 2.95 3.10 2.54 1.97 2.18 2.24 2.30 2.15 2.03 1.74 2.05 2.09 1.68 1.20 1.07 0.87
0.34 0.23 0.33 0.41 0.51 0.66 0.84 0.96 1.22 1.31 1.47 1.40 1.69 1.80 2.11 2.18 2.55 2.87 2.72 2.18 1.72 1.55 1.89 2.36 2.57 2.37 2.33 2.20 2.02 1.79 1.35 1.09
0.14 0.25 0.45 0.42 0.44 0.61 0.83 1.20 1.47 1.39 1.42 1.24 1.29 1.61 1.97 2.29 2.55 2.56 2.35 2.08 1.86 1.86 2.08 2.42 2.27 2.28 2.16 2.33 2.15 1.72 1.31 1.19
0.22 0.27 0.32 0.27 0.40 0.63 0.65 0.71 0.78 0.66 0.63 0.74 0.80 1.24 1.90 2.59 3.06 2.94 3.15 3.42 2.94 2.64 2.27 2.36 2.71 2.81 3.17 2.52 1.61 1.29 1.18 1.35
0.15 0.27 0.33 0.26 0.39 0.75 0.85 0.84 0.63 0.54 0.55 0.70 0.82 1.05 1.47 2.02 2.68 3.20 3.51 3.59 3.47 3.33 3.11 3.14 3.11 2.85 2.90 2.91 2.91 2.30 1.66 1.21
0.16 0.18 0.32 0.34 0.35 0.60 1.04 1.46 1.72 1.79 1.48 1.07 0.85 1.03 1.31 1.72 2.07 2.42 3.14 3.45 3.41 3.18 3.30 3.18 2.81 2.72 2.98 2.98 2.42 2.15 2.04 1.77
0.27 0.19 0.20 0.24 0.28 0.29 0.45 0.76 1.11 1.60 2.26 3.04 2.92 2.38 2.10 2.30 2.53 2.46 2.70 3.11 3.90 3.61 3.63 3.60 3.64 2.91 2.51 2.34 2.14 1.92 1.65 1.72
0.39 0.37 0.36 0.23 0.24 0.34 0.49 0.59 0.75 1.09 1.24 1.58 2.41 3.18 2.85 3.17 3.62 3.90 3.33 3.08 3.65 4.02 3.70 3.61 4.15 4.17 3.59 2.99 2.50 2.28 2.31 2.19

GFSFLT2_prec_precacc_231.txt.gz
Total_Precipitation_Accumulation
10.57 7.27 6.42 5.67 6.33 4.11 1.79 1.64 1.82 2.19 2.31 2.33 2.63 2.99 2.05 1.53 0.97 0.74 0.73 0.72 0.38 0.34 0.29 0.40 0.58 0.54 0.23 0.26 0.29 0.32 0.39 1.05
6.96 5.70 4.95 4.65 4.82 5.35 3.72 2.50 2.16 1.89 1.86 1.82 1.74 2.23 2.13 1.50 1.02 0.76 0.83 0.72 0.50 0.40 0.50 0.63 0.58 0.55 0.55 0.47 0.36 0.28 0.15 0.29
3.69 2.64 1.87 2.18 2.32 2.73 3.35 3.29 2.69 2.72 2.92 2.12 1.68 1.56 2.09 1.76 1.28 0.98 1.04 0.88 0.70 0.56 0.65 0.66 0.54 0.45 0.32 0.29 0.24 0.24 0.17 0.25
1.37 0.91 0.54 0.58 0.72 0.85 1.41 2.16 2.53 2.24 3.57 2.49 2.14 1.26 1.42 1.36 1.55 1.26 1.11 1.17 0.78 0.81 0.65 0.50 0.37 0.25 0.17 0.13 0.10 0.22 0.21 0.28
0.84 0.60 0.41 0.47 0.34 0.41 0.61 1.22 2.03 2.29 2.50 2.34 2.37 1.46 1.61 1.40 1.62 1.26 1.10 1.55 0.99 0.95 0.68 0.47 0.31 0.31 0.29 0.16 0.22 0.20 0.22 0.19
0.36 0.44 0.54 0.90 0.68 0.41 0.45 0.89 1.68 1.83 1.47 1.34 1.78 1.36 1.44 1.56 1.32 1.22 0.94 1.42 1.07 0.87 0.63 0.52 0.54 0.52 0.41 0.30 0.32 0.24 0.24 0.24
0.40 0.22 0.37 0.47 0.56 0.66 0.62 0.75 1.07 1.34 1.18 0.59 1.23 1.22 1.14 1.64 1.47 1.51 1.05 1.50 0.98 0.65 0.61 0.54 0.62 0.69 0.62 0.53 0.32 0.38 0.22 0.30
0.48 0.44 0.39 0.39 0.47 0.46 0.61 0.86 1.18 1.11 1.20 0.67 0.75 1.04 1.40 1.95 1.88 1.79 1.36 1.30 1.28 1.05 0.59 0.57 0.52 0.72 0.59 0.51 0.39 0.40 0.18 0.25
0.62 1.03 0.52 0.38 0.41 0.52 0.53 0.63 1.04 1.18 1.30 1.11 0.90 1.02 1.32 1.80 2.01 1.79 1.57 1.49 1.30 1.46 1.11 0.80 0.73 0.97 0.68 0.58 0.47 0.50 0.30 0.20
0.67 1.29 0.95 0.60 0.49 0.74 0.73 0.93 1.14 1.37 1.64 1.57 1.14 1.14 1.56 1.83 1.90 2.08 2.31 2.53 2.26 2.07 2.11 1.58 1.21 1.25 1.18 0.82 0.68 0.55 0.51 0.21
0.50 0.84 1.09 1.05 1.03 1.14 1.08 1.10 1.33 1.49 1.66 1.90 1.89 2.12 2.36 2.30 2.31 2.66 2.99 2.95 2.64 2.25 1.81 1.65 1.27 1.26 1.39 1.15 0.94 0.67 0.71 0.57
0.59 0.75 1.25 1.74 1.20 0.85 1.07 1.39 1.30 1.31 1.34 1.66 1.79 1.72 2.13 2.46 2.55 2.23 2.35 2.52 2.50 2.40 2.37 2.18 1.81 1.51 1.57 1.63 1.28 1.17 0.96 0.90
0.65 1.02 1.03 0.77 0.67 0.70 0.93 1.09 1.25 1.37 1.22 1.43 1.88 1.91 2.04 2.62 2.96 3.13 2.61 2.06 2.28 2.38 2.47 2.30 2.10 1.79 2.14 2.18 1.71 1.21 1.08 0.88
0.34 0.23 0.33 0.41 0.51 0.66 0.84 0.96 1.22 1.31 1.47 1.40 1.69 1.80 2.11 2.18 2.56 2.88 2.76 2.24 1.82 1.67 2.03 2.59 2.80 2.58 2.53 2.49 2.33 2.01 1.44 1.12
0.14 0.25 0.45 0.42 0.44 0.61 0.83 1.20 1.47 1.39 1.42 1.24 1.29 1.61 1.97 2.29 2.55 2.56 2.38 2.18 2.03 2.12 2.38 2.70 2.47 2.49 2.34 2.54 2.38 1.94 1.43 1.24
0.22 0.27 0.32 0.27 0.40 0.63 0.65 0.71 0.78 0.66 0.63 0.74 0.80 1.24 1.90 2.59 3.06 2.94 3.15 3.44 3.01 2.84 2.61 2.95 3.44 3.62 3.91 3.25 2.31 2.02 1.79 1.83
0.15 0.27 0.33 0.26 0.39 0.75 0.85 0.84 0.63 0.54 0.55 0.70 0.82 1.05 1.47 2.02 2.68 3.21 3.51 3.59 3.47 3.39 3.23 3.32 3.39 3.24 3.28 3.33 3.50 3.15 2.47 1.79
0.16 0.18 0.32 0.34 0.35 0.60 1.04 1.46 1.72 1.79 1.48 1.07 0.85 1.03 1.31 1.72 2.09 2.44 3.16 3.46 3.42 3.19 3.31 3.23 2.95 3.00 3.32 3.22 2.56 2.28 2.26 2.10
0.27 0.19 0.20 0.24 0.28 0.29 0.45 0.76 1.11 1.60 2.26 3.04 2.92 2.38 2.10 2.31 2.54 2.48 2.72 3.14 3.92 3.62 3.64 3.62 3.71 3.07 2.71 2.61 2.39 2.08 1.75 1.88
0.39 0.37 0.36 0.23 0.24 0.34 0.49 0.59 0.75 1.09 1.24 1.58 2.41 3.18 2.85 3.17 3.64 3.93 3.36 3.13 3.72 4.09 3.75 3.64 4.20 4.24 3.72 3.18 2.74 2.47 2.45 2.32

GFSFLT2_prec_precacc_234.txt.gz
Total_Precipitation_Accumulation
10.57 7.27 6.42 5.67 6.33 4.11 1.79 1.64 1.82 2.19 2.31 2.33 2.63 2.99 2.05 1.53 0.97 0.74 0.73 0.72 0.38 0.34 0.29 0.40 0.58 0.54 0.23 0.26 0.29 0.32 0.39 1.05
6.96 5.70 4.95 4.65 4.82 5.35 3.72 2.50 2.16 1.89 1.86 1.82 1.74 2.23 2.13 1.50 1.02 0.76 0.83 0.72 0.50 0.40 0.50 0.63 0.58 0.55 0.55 0.47 0.36 0.28 0.15 0.29
3.69 2.64 1.87 2.18 2.32 2.73 3.35 3.29 2.69 2.72 2.92 2.12 1.68 1.56 2.09 1.76 1.28 0.98 1.04 0.88 0.70 0.56 0.65 0.66 0.54 0.45 0.32 0.29 0.24 0.24 0.17 0.25
1.37 0.93 0.58 0.60 0.75 0.86 1.41 2.16 2.53 2.24 3.57 2.49 2.14 1.27 1.42 1.36 1.55 1.26 1.11 1.17 0.78 0.81 0.65 0.50 0.37 0.25 0.17 0.13 0.10 0.22 0.21 0.28
0.85 0.64 0.50 0.54 0.41 0.46 0.63 1.22 2.03 2.29 2.50 2.34 2.37 1.46 1.61 1.40 1.62 1.26 1.10 1.55 0.99 0.95 0.68 0.47 0.31 0.31 0.29 0.16 0.22 0.20 0.22 0.19
0.36 0.46 0.58 0.92 0.68 0.43 0.49 0.91 1.68 1.83 1.47 1.34 1.78 1.36 1.44 1.56 1.32 1.22 0.94 1.42 1.07 0.87 0.63 0.52 0.54 0.52 0.41 0.30 0.32 0.24 0.24 0.24
0.40 0.22 0.38 0.48 0.56 0.66 0.63 0.77 1.08 1.34 1.18 0.59 1.23 1.22 1.15 1.64 1.47 1.51 1.05 1.50 0.98 0.65 0.61 0.54 0.62 0.69 0.62 0.53 0.32 0.38 0.22 0.30
0.48 0.44 0.39 0.39 0.47 0.47 0.63 0.88 1.23 1.15 1.22 0.75 0.84 1.12 1.51 2.10 2.03 1.89 1.39 1.32 1.33 1.08 0.68 0.65 0.59 0.75 0.59 0.51 0.39 0.40 0.18 0.25
0.62 1.03 0.52 0.38 0.41 0.52 0.53 0.64 1.04 1.19 1.30 1.13 0.94 1.09 1.41 1.93 2.12 1.92 1.71 1.61 1.37 1.58 1.31 1.02 0.90 1.01 0.69 0.60 0.47 0.50 0.30 0.20
0.67 1.29 0.95 0.60 0.49 0.74 0.73 0.93 1.14 1.37 1.64 1.57 1.15 1.16 1.59 1.88 1.96 2.15 2.40 2.69 2.40 2.12 2.18 1.71 1.35 1.38 1.26 0.84 0.68 0.55 0.51 0.21
0.50 0.84 1.09 1.05 1.03 1.14 1.08 1.10 1.33 1.49 1.66 1.90 1.89 2.12 2.37 2.31 2.34 2.70 3.07 3.07 2.79 2.38 1.91 1.75 1.41 1.40 1.55 1.24 0.97 0.68 0.71 0.57
0.59 0.75 1.25 1.74 1.20 0.85 1.07 1.39 1.30 1.31 1.34 1.66 1.79 1.72 2.13 2.46 2.55 2.24 2.38 2.58 2.58 2.50 2.47 2.26 1.88 1.65 1.75 1.80 1.41 1.22 0.98 0.90
0.65 1.02 1.03 0.77 0.67 0.70 0.93 1.09 1.25 1.37 1.22 1.43 1.88 1.91 2.04 2.62 2.96 3.13 2.61 2.07 2.30 2.42 2.55 2.40 2.20 1.90 2.27 2.32 1.81 1.29 1.10 0.90
0.34 0.23 0.33 0.41 0.51 0.66 0.84 0.96 1.22 1.31 1.47 1.40 1.69 1.80 2.11 2.18 2.56 2.88 2.76 2.24 1.83 1.70 2.11 2.72 2.94 2.71 2.65 2.64 2.51 2.23 1.66 1.27
0.14 0.25 0.45 0.42 0.44 0.61 0.83 1.20 1.47 1.39 1.42 1.24 1.29 1.61 1.97 2.29 2.55 2.56 2.38 2.18 2.04 2.14 2.45 2.88 2.79 2.90 2.68 2.74 2.52 2.05 1.58 1.43
0.22 0.27 0.32 0.27 0.40 0.63 0.65 0.71 0.78 0.66 0.63 0.74 0.80 1.24 1.90 2.59 3.06 2.94 3.15 3.44 3.01 2.84 2.62 2.98 3.59 3.96 4.43 3.82 2.87 2.32 1.99 2.03
0.15 0.27 0.33 0.26 0.39 0.75 0.85 0.84 0.63 0.54 0.55 0.70 0.82 1.05 1.47 2.02 2.68 3.21 3.51 3.59 3.47 3.39 3.24 3.32 3.40 3.29 3.52 3.68 4.04 3.69 2.92 2.09
0.16 0.18 0.32 0.34 0.35 0.60 1.04 1.46 1.72 1.79 1.48 1.07 0.85 1.03 1.31 1.72 2.09 2.44 3.16 3.47 3.42 3.19 3.32 3.24 2.95 3.00 3.35 3.41 2.95 2.70 2.64 2.49
0.27 0.19 0.20 0.24 0.28 0.29 0.45 0.76 1.11 1.60 2.26 3.04 2.92 2.38 2.10 2.31 2.54 2.48 2.73 3.14 3.93 3.63 3.65 3.64 3.74 3.09 2.73 2.64 2.51 2.37 2.09 2.21
0.39 0.37 0.36 0.23 0.24 0.34 0.49 0.59 0.75 1.09 1.24 1.58 2.41 3.18 2.85 3.17 3.64 3.93 3.36 3.14 3.72 4.11 3.80 3.72 4.28 4.33 3.81 3.25 2.83 2.59 2.67 2.62

GFSFLT2_prec_precacc_237.txt.gz
Total_Precipitation_Accumulation
10.57 7.27 6.42 5.67 6.33 4.11 1.79 1.64 1.82 2.19 2.31 2.33 2.63 2.99 2.05 1.53 0.97 0.74 0.73 0.72 0.38 0.34 0.29 0.40 0.58 0.54 0.23 0.26 0.29 0.32 0.39 1.05
6.96 5.70 4.95 4.65 4.82 5.35 3.72 2.50 2.16 1.89 1.86 1.82 1.74 2.23 2.13 1.50 1.02 0.76 0.83 0.72 0.50 0.40 0.50 0.63 0.58 0.55 0.55 0.47 0.36 0.28 0.15 0.29
3.69 2.64 1.87 2.18 2.32 2.73 3.35 3.29 2.69 2.72 2.92 2.12 1.68 1.56 2.09 1.76 1.28 0.98 1.04 0.88 0.70 0.56 0.65 0.66 0.54 0.45 0.32 0.29 0.24 0.24 0.17 0.25
1.41 0.98 0.62 0.62 0.77 0.87 1.41 2.16 2.53 2.24 3.57 2.49 2.14 1.27 1.42 1.36 1.55 1.26 1.11 1.17 0.78 0.81 0.65 0.50 0.37 0.25 0.17 0.13 0.10 0.22 0.21 0.28
0.89 0.72 0.54 0.57 0.47 0.53 0.69 1.26 2.06 2.35 2.53 2.35 2.38 1.46 1.61 1.40 1.62 1.26 1.10 1.55 0.99 0.95 0.68 0.47 0.31 0.31 0.29 0.16 0.22 0.20 0.22 0.19
0.37 0.49 0.62 0.94 0.76 0.57 0.64 1.03 1.76 1.88 1.48 1.34 1.78 1.36 1.44 1.56 1.32 1.22 0.94 1.42 1.07 0.87 0.63 0.52 0.54 0.52 0.41 0.30 0.32 0.24 0.24 0.24
0.40 0.22 0.40 0.51 0.61 0.75 0.72 0.82 1.11 1.38 1.24 0.62 1.26 1.25 1.17 1.67 1.48 1.54 1.07 1.51 0.99 0.65 0.61 0.54 0.62 0.69 0.62 0.53 0.32 0.38 0.22 0.30
0.48 0.44 0.39 0.39 0.48 0.47 0.65 0.94 1.29 1.21 1.27 0.80 0.89 1.20 1.61 2.21 2.14 1.97 1.44 1.38 1.42 1.19 0.77 0.72 0.63 0.80 0.62 0.54 0.43 0.41 0.19 0.25
0.62 1.03 0.52 0.38 0.41 0.52 0.53 0.64 1.06 1.21 1.32 1.15 0.94 1.10 1.42 1.94 2.14 1.96 1.75 1.65 1.41 1.67 1.45 1.18 1.14 1.25 0.93 0.80 0.58 0.56 0.32 0.20
0.67 1.29 0.95 0.60 0.49 0.74 0.73 0.93 1.14 1.37 1.64 1.57 1.15 1.16 1.59 1.88 1.96 2.16 2.42 2.71 2.42 2.16 2.24 1.75 1.38 1.45 1.39 0.95 0.77 0.59 0.53 0.22
0.50 0.84 1.09 1.05 1.03 1.14 1.08 1.10 1.33 1.49 1.66 1.90 1.89 2.12 2.37 2.31 2.34 2.70 3.07 3.07 2.80 2.40 1.94 1.81 1.44 1.42 1.57 1.31 1.05 0.74 0.75 0.61
0.59 0.75 1.25 1.74 1.20 0.85 1.07 1.39 1.30 1.31 1.34 1.66 1.79 1.72 2.13 2.46 2.55 2.24 2.38 2.58 2.58 2.50 2.48 2.30 1.94 1.72 1.82 1.82 1.44 1.27 1.01 0.92
0.65 1.02 1.03 0.77 0.67 0.70 0.93 1.09 1.25 1.37 1.22 1.43 1.88 1.91 2.04 2.62 2.96 3.13 2.61 2.07 2.30 2.42 2.55 2.42 2.24 1.99 2.39 2.40 1.85 1.32 1.14 0.91
0.34 0.23 0.33 0.41 0.51 0.66 0.84 0.96 1.22 1.31 1.47 1.40 1.69 1.80 2.11 2.18 2.56 2.88 2.76 2.24 1.83 1.70 2.11 2.72 2.95 2.74 2.76 2.76 2.62 2.32 1.72 1.32
0.14 0.25 0.45 0.42 0.44 0.61 0.83 1.20 1.47 1.39 1.42 1.24 1.29 1.61 1.97 2.29 2.55 2.56 2.38 2.18 2.04 2.14 2.45 2.88 2.79 2.90 2.74 2.99 2.83 2.24 1.71 1.51
0.22 0.27 0.32 0.27 0.40 0.63 0.65 0.71 0.78 0.66 0.63 0.74 0.80 1.24 1.90 2.59 3.06 2.94 3.15 3.44 3.01 2.84 2.62 2.98 3.59 3.96 4.43 3.83 3.02 2.64 2.34 2.32
0.15 0.27 0.33 0.26 0.39 0.75 0.85 0.84 0.63 0.54 0.55 0.70 0.82 1.05 1.47 2.02 2.68 3.21 3.51 3.59 3.47 3.39 3.24 3.32 3.40 3.30 3.53 3.70 4.05 3.74 3.12 2.52
0.16 0.18 0.32 0.34 0.35 0.60 1.04 1.46 1.72 1.79 1.48 1.07 0.85 1.03 1.31 1.72 2.09 2.44 3.16 3.47 3.42 3.19 3.32 3.24 2.95 3.01 3.38 3.43 2.97 2.72 2.67 2.60
0.27 0.19 0.20 0.24 0.28 0.29 0.45 0.76 1.11 1.60 2.26 3.04 2.92 2.38 2.10 2.31 2.54 2.48 2.73 3.14 3.93 3.63 3.65 3.64 3.74 3.10 2.74 2.67 2.55 2.42 2.15 2.27
0.39 0.37 0.36 0.23 0.24 0.34 0.49 0.59 0.75 1.09 1.24 1.58 2.41 3.18 2.86 3.17 3.64 3.93 3.36 3.14 3.72 4.11 3.80 3.72 4.28 4.34 3.81 3.27 2.86 2.64 2.77 2.78